#timestamp,LO_Frequency,Hit,StdDev 
1546394415.7,286047005.7,N
1546394435.5,286047002.0,N
1546394455.4,286047000.2,N
1546394475.2,286047000.6,N
1546394495.1,286047001.9,N
1546394496.0,286047001.9,N
1546394515.8,286046999.8,N
1546394535.6,286047000.6,N
1546394555.5,286047000.7,N
1546394575.3,286047000.4,N
1546394595.1,286046997.0,N
1546394615.9,286046997.5,N
1546394635.7,286046997.6,N
1546394655.5,286046998.2,N
1546394675.4,286046996.6,N
1546394695.2,286046999.1,N
1546394715.1,286047001.1,N
1546394716.0,286047001.1,N
1546394735.8,286047001.2,N
1546394755.6,286046998.2,N
1546394775.5,286046999.0,N
1546394795.3,286046998.4,N
1546394815.1,286046999.4,N
1546394835.9,286046998.7,N
1546394855.7,286046999.4,N
1546394875.6,286047000.5,N
1546394895.4,286047000.8,N
1546394915.2,286046997.5,N
1546394935.1,286046999.5,N
1546394936.0,286046999.5,N
1546394955.8,286046997.2,N
1546394975.6,286046996.9,N
1546394995.5,286046998.0,N
1546395015.3,286046995.3,Y
1546395035.2,286046998.3,P
1546395055.9,286046998.5,P
1546395075.7,286047000.6,N
1546395095.6,286047000.1,N
1546395115.4,286046999.8,N
1546395135.2,286046998.1,N
1546395155.1,286046998.6,N
1546395156.0,286046998.6,N
1546395175.8,286046998.3,N
1546395195.7,286046996.6,Y
1546395215.5,286046998.5,P
1546395235.3,286046998.3,P
1546395255.2,286046999.5,N
1546395275.0,286046998.8,N
1546395275.9,286046998.8,N
1546395295.8,286046998.2,Y
1546395315.6,286047002.3,P
1546395335.4,286046998.6,N
1546395355.3,286046999.8,N
1546395375.1,286046998.6,N
1546395395.8,286046998.3,N
1546395415.7,286046998.7,N
1546395435.5,286047001.2,N
1546395455.4,286047002.6,N
1546395475.2,286046999.7,N
1546395495.0,286047000.6,N
1546395495.9,286047000.6,N
1546395515.8,286046999.8,N
1546395535.6,286047002.6,N
1546395555.4,286046999.7,N
1546395575.3,286047002.7,N
1546395595.1,286047000.9,N
1546395615.8,286047002.0,N
1546395635.7,286047001.4,N
1546395655.5,286047000.0,N
1546395675.4,286046998.6,N
1546395695.2,286047000.7,N
1546395715.0,286047004.3,Y
1546395715.9,286047004.3,P
1546395735.8,286047001.4,N
1546395755.6,286047001.8,N
1546395775.5,286047006.0,Y
1546395795.3,286047000.9,P
1546395815.1,286047001.7,P
1546395835.9,286047003.9,P
1546395855.7,286047003.0,N
1546395875.5,286047002.8,N
1546395895.4,286046999.9,N
1546395915.2,286047002.8,N
1546395935.0,286047000.1,N
1546395936.0,286047000.1,N
1546395955.8,286047002.1,N
1546395975.6,286047002.1,N
1546395995.5,286047002.3,N
1546396015.3,286047000.4,N
1546396035.1,286047002.6,N
1546396055.9,286047001.6,N
1546396075.7,286047002.1,N
1546396095.5,286047002.2,N
1546396115.4,286047000.9,N
1546396135.2,286047000.5,N
1546396155.1,286047002.8,N
1546396156.0,286047002.8,N
1546396175.8,286047001.4,N
1546396195.6,286047001.3,N
1546396215.5,286047003.9,Y
1546396235.3,286047002.2,P
1546396255.2,286047002.6,P
1546396275.9,286047005.7,P
1546396295.7,286047006.8,Y
1546396315.6,286047003.6,P
1546396335.4,286047001.5,P
1546396355.2,286047002.8,P
1546396375.1,286047002.6,Y
1546396376.0,286047002.6,P
1546396395.8,286046999.4,P
1546396415.7,286046999.0,N
1546396435.5,286046999.3,N
1546396455.3,286046995.1,N
1546396475.2,286046995.4,N
1546396495.0,286046995.1,N
1546396495.9,286046995.1,N
1546396515.7,286046997.9,N
1546396535.6,286046996.8,N
1546396555.4,286046999.6,N
1546396575.3,286046997.8,N
1546396595.1,286046997.1,N
1546396596.0,286046997.1,N
1546396615.8,286046995.0,N
1546396635.7,286046995.1,N
1546396655.5,286046996.3,N
1546396675.3,286046993.3,N
1546396695.2,286046995.7,N
1546396715.0,286046995.1,N
1546396715.9,286046995.1,N
1546396735.8,286046995.5,N
1546396755.6,286046994.9,N
1546396775.4,286046995.7,N
1546396795.3,286047011.9,Y
1546396815.1,286046999.2,P
1546396835.8,286047000.8,N
1546396855.7,286047000.8,N
1546396875.5,286047000.7,N
1546396895.4,286046999.5,N
1546396915.2,286046999.2,N
1546396935.0,286046999.5,N
1546396935.9,286046999.5,N
1546396955.8,286046998.8,N
1546396975.6,286047000.3,N
1546396995.4,286047001.1,N
1546397015.3,286047000.5,N
1546397035.1,286047000.9,N
1546397055.9,286047000.6,N
1546397075.7,286046997.1,N
1546397095.5,286046997.8,N
1546397115.4,286046997.3,N
1546397135.2,286046999.0,N
1546397155.0,286046998.2,N
1546397155.9,286046998.2,N
1546397175.8,286047001.1,N
1546397195.6,286047003.9,N
1546397215.5,286047003.7,N
1546397235.3,286047001.5,N
1546397255.1,286047004.9,N
1546397275.9,286047005.0,N
1546397295.7,286047003.0,N
1546397315.5,286047003.1,N
1546397335.4,286047001.1,N
1546397355.2,286047000.3,N
1546397375.1,286047002.3,N
1546397376.0,286047002.3,N
1546397395.8,286047004.3,N
1546397415.6,286047003.2,N
1546397435.5,286047001.3,N
1546397455.3,286047001.9,N
1546397475.1,286047000.6,N
1546397495.9,286047002.8,N
1546397515.7,286047000.0,N
1546397535.6,286047000.6,N
1546397555.4,286046999.8,N
1546397575.2,286046999.8,N
1546397595.1,286047000.6,N
1546397596.0,286047000.6,N
1546397615.8,286047000.4,N
1546397635.6,286046999.9,N
1546397655.5,286047000.4,N
1546397675.3,286047001.0,N
1546397695.2,286047002.4,N
1546397715.9,286047002.1,N
1546397735.7,286046999.9,N
1546397755.6,286047000.5,N
1546397775.4,286047002.1,N
1546397795.2,286046998.6,N
1546397815.1,286046998.3,N
1546397816.0,286046998.3,N
1546397835.8,286046998.7,N
1546397855.7,286046998.8,N
1546397875.5,286046996.6,N
1546397895.3,286046994.9,Y
1546397915.2,286046995.8,P
1546397935.0,286046995.3,N
1546397935.9,286046995.3,N
1546397955.7,286046994.0,N
1546397975.6,286046995.3,N
1546397995.4,286046995.3,N
